Retour au catalogue

STARLINK-35110

ActifCommunicationsSSO
NORAD 65539·PAYLOAD·🇺🇸 United States

Lancé Sep 6, 2025 depuis Cape Canaveral Space Force Station

Loading…

Prochains Passages (prochaines 24 heures)

TLE

FraisSource: CelesTrak SupGP

Époque: Sep 15, 2026, 02:42 UTC

1 65539C 25200V   26258.11298611  .00084043  00000+0  26080-2 0  2583
2 65539  97.2845 324.6175 0000883  85.3840  76.4776 15.33408716    16

Suivez STARLINK-35110 en temps réel avec AllMySat

Download on the App Store